| time (UTC) | temp C | wind direction | speed KPH | gust KPH | rain 1hr cm | rain 24hr cm | rain mn cm | humidity % | barometer mb |
| 20260506034517 | 12 | 0 | 1.6 | 4.8 | 0.00 | 0.00 | 0.00 | 82 | 1010.6 |
| 20260506033517 | 12 | 0 | 1.6 | 4.8 | 0.00 | 0.00 | 0.00 | 81 | 1010.6 |
| 20260506032517 | 12 | 338 | 3.2 | 4.8 | 0.00 | 0.00 | 0.00 | 80 | 1010.7 |
| 20260506031518 | 12 | 338 | 3.2 | 4.8 | 0.00 | 0.00 | 0.00 | 79 | 1010.7 |
| 20260506030517 | 13 | 338 | 3.2 | 4.8 | 0.00 | 0.00 | 0.00 | 78 | 1010.8 |
| 20260506025518 | 13 | 0 | 3.2 | 6.4 | 0.00 | 0.00 | 0.00 | 77 | 1010.8 |
| 20260506024517 | 13 | 0 | 1.6 | 4.8 | 0.00 | 0.00 | 0.00 | 76 | 1010.9 |
| 20260506023537 | 13 | 0 | 1.6 | 4.8 | 0.00 | 0.00 | 0.00 | 75 | 1010.9 |
| 20260506022517 | 13 | 0 | 3.2 | 6.4 | 0.00 | 0.00 | 0.00 | 75 | 1011.0 |
| 20260506021557 | 13 | 338 | 3.2 | 6.4 | 0.00 | 0.00 | 0.00 | 74 | 1011.0 |
| 20260506020518 | 13 | 338 | 4.8 | 8.0 | 0.00 | 0.00 | 0.00 | 74 | 1010.9 |
| 20260506015518 | 13 | 338 | 8.0 | 9.7 | 0.00 | 0.00 | 0.00 | 73 | 1011.0 |
| 20260506014517 | 13 | 338 | 3.2 | 9.7 | 0.00 | 0.00 | 0.00 | 75 | 1011.2 |
| 20260506013518 | 13 | 315 | 1.6 | 4.8 | 0.00 | 0.00 | 0.00 | 77 | 1011.2 |
| 20260506012517 | 13 | 0.0 | 0.0 | 0.00 | 0.00 | 0.00 | 80 | 1011.3 | |
| 20260506011517 | 14 | 0.0 | 1.6 | 0.00 | 0.00 | 0.00 | 81 | 1011.4 | |
| 20260506010538 | 14 | 0.0 | 0.0 | 0.00 | 0.00 | 0.00 | 80 | 1011.5 | |
| 20260506005517 | 14 | 0.0 | 0.0 | 0.00 | 0.00 | 0.00 | 80 | 1011.5 | |
| 20260506004517 | 14 | 0.0 | 0.0 | 0.00 | 0.00 | 0.00 | 80 | 1011.6 | |
| 20260506003517 | 14 | 0.0 | 0.0 | 0.00 | 0.00 | 0.00 | 80 | 1011.7 | |
| 20260506002518 | 14 | 0.0 | 0.0 | 0.00 | 0.00 | 0.00 | 80 | 1011.8 | |
| 20260506001558 | 14 | 0.0 | 0.0 | 0.00 | 0.00 | 0.00 | 80 | 1012.0 | |
| 20260506000517 | 15 | 0.0 | 0.0 | 0.00 | 0.00 | 0.00 | 79 | 1012.1 | |
| 20260505235558 | 15 | 0.0 | 0.0 | 0.00 | 0.00 | 0.00 | 79 | 1012.1 | |
| 20260505234537 | 15 | 0.0 | 0.0 | 0.00 | 0.00 | 0.00 | 79 | 1012.1 | |
| 20260505233517 | 15 | 0.0 | 3.2 | 0.00 | 0.00 | 0.00 | 78 | 1012.1 | |
| 20260505232517 | 15 | 158 | 1.6 | 3.2 | 0.00 | 0.00 | 0.00 | 78 | 1012.0 |
| 20260505231517 | 15 | 158 | 1.6 | 4.8 | 0.00 | 0.00 | 0.00 | 78 | 1012.0 |
| 20260505230537 | 15 | 0.0 | 0.0 | 0.00 | 0.00 | 0.00 | 78 | 1012.0 | |
| 20260505225518 | 15 | 0.0 | 0.0 | 0.00 | 0.00 | 0.00 | 77 | 1012.0 | |
| 20260505224518 | 15 | 158 | 1.6 | 4.8 | 0.00 | 0.00 | 0.00 | 77 | 1012.1 |
| 20260505223516 | 15 | 158 | 1.6 | 6.4 | 0.00 | 0.00 | 0.00 | 77 | 1012.2 |
| 20260505222518 | 15 | 135 | 4.8 | 12.9 | 0.00 | 0.00 | 0.00 | 76 | 1012.3 |
| 20260505221516 | 16 | 135 | 9.7 | 14.5 | 0.00 | 0.00 | 0.00 | 75 | 1012.3 |
| 20260505220516 | 16 | 135 | 6.4 | 9.7 | 0.00 | 0.00 | 0.00 | 74 | 1012.2 |
| 20260505215517 | 17 | 135 | 6.4 | 11.3 | 0.00 | 0.00 | 0.00 | 72 | 1012.4 |
| 20260505214517 | 17 | 158 | 4.8 | 8.0 | 0.00 | 0.00 | 0.00 | 71 | 1012.3 |
| 20260505213517 | 17 | 248 | 3.2 | 6.4 | 0.00 | 0.00 | 0.00 | 71 | 1012.3 |
| 20260505212537 | 17 | 248 | 3.2 | 8.0 | 0.00 | 0.00 | 0.00 | 71 | 1012.3 |
| 20260505211538 | 17 | 248 | 1.6 | 9.7 | 0.00 | 0.00 | 0.00 | 71 | 1012.3 |
| 20260505210537 | 17 | 248 | 3.2 | 6.4 | 0.00 | 0.00 | 0.00 | 71 | 1012.4 |
| 20260505205517 | 17 | 225 | 1.6 | 4.8 | 0.00 | 0.00 | 0.00 | 71 | 1012.4 |
| 20260505204518 | 17 | 225 | 3.2 | 6.4 | 0.00 | 0.00 | 0.00 | 71 | 1012.4 |
| 20260505203517 | 17 | 225 | 3.2 | 8.0 | 0.00 | 0.00 | 0.00 | 70 | 1012.4 |
| 20260505202517 | 17 | 225 | 3.2 | 9.7 | 0.00 | 0.00 | 0.00 | 70 | 1012.4 |
| 20260505201517 | 17 | 180 | 3.2 | 9.7 | 0.00 | 0.00 | 0.00 | 69 | 1012.4 |
| 20260505200517 | 17 | 203 | 4.8 | 16.1 | 0.00 | 0.00 | 0.00 | 68 | 1012.4 |
| 20260505195517 | 17 | 203 | 4.8 | 9.7 | 0.00 | 0.00 | 0.00 | 67 | 1012.3 |
| 20260505194517 | 17 | 225 | 6.4 | 14.5 | 0.00 | 0.00 | 0.00 | 67 | 1012.2 |
| 20260505193517 | 18 | 225 | 8.0 | 17.7 | 0.00 | 0.00 | 0.00 | 66 | 1012.1 |
| 20260505192518 | 18 | 248 | 4.8 | 14.5 | 0.00 | 0.00 | 0.00 | 66 | 1012.1 |
| 20260505191517 | 18 | 225 | 6.4 | 16.1 | 0.00 | 0.00 | 0.00 | 65 | 1012.0 |
| 20260505190517 | 18 | 203 | 9.7 | 17.7 | 0.00 | 0.00 | 0.00 | 64 | 1012.0 |
| 20260505185517 | 18 | 203 | 8.0 | 19.3 | 0.00 | 0.00 | 0.00 | 64 | 1012.1 |
| 20260505184557 | 18 | 225 | 9.7 | 17.7 | 0.00 | 0.00 | 0.00 | 63 | 1012.1 |
| 20260505183518 | 18 | 248 | 8.0 | 19.3 | 0.00 | 0.00 | 0.00 | 62 | 1012.2 |
| 20260505182517 | 18 | 225 | 14.5 | 29.0 | 0.00 | 0.00 | 0.00 | 61 | 1012.2 |
| 20260505181518 | 18 | 225 | 12.9 | 27.4 | 0.00 | 0.00 | 0.00 | 61 | 1012.0 |
| 20260505180517 | 19 | 248 | 14.5 | 24.1 | 0.00 | 0.00 | 0.00 | 60 | 1012.0 |
| 20260505175518 | 19 | 248 | 14.5 | 29.0 | 0.00 | 0.00 | 0.00 | 59 | 1012.0 |
| 20260505174516 | 19 | 248 | 11.3 | 20.9 | 0.00 | 0.00 | 0.00 | 61 | 1012.1 |
| 20260505173518 | 19 | 225 | 16.1 | 30.6 | 0.00 | 0.00 | 0.00 | 59 | 1011.9 |
| 20260505172517 | 19 | 270 | 12.9 | 25.7 | 0.00 | 0.00 | 0.00 | 59 | 1011.9 |
| 20260505171518 | 19 | 248 | 14.5 | 29.0 | 0.00 | 0.00 | 0.00 | 58 | 1012.0 |
| 20260505170538 | 20 | 248 | 14.5 | 27.4 | 0.00 | 0.00 | 0.00 | 57 | 1012.0 |
| 20260505165517 | 20 | 248 | 12.9 | 25.7 | 0.00 | 0.00 | 0.00 | 56 | 1012.1 |
| 20260505164516 | 20 | 248 | 14.5 | 32.2 | 0.00 | 0.00 | 0.00 | 57 | 1012.0 |
| 20260505163516 | 20 | 248 | 14.5 | 30.6 | 0.00 | 0.00 | 0.00 | 56 | 1012.2 |
| 20260505162517 | 20 | 270 | 14.5 | 25.7 | 0.00 | 0.00 | 0.00 | 55 | 1012.2 |
| 20260505161516 | 20 | 248 | 17.7 | 33.8 | 0.00 | 0.00 | 0.00 | 51 | 1012.4 |
| 20260505160538 | 21 | 270 | 12.9 | 25.7 | 0.00 | 0.00 | 0.00 | 46 | 1012.3 |
| 20260505152516 | 21 | 225 | 12.9 | 29.0 | 0.00 | 0.00 | 0.00 | 42 | 1012.3 |
| 20260505151518 | 21 | 270 | 11.3 | 20.9 | 0.00 | 0.00 | 0.00 | 42 | 1012.3 |
| 20260505150517 | 22 | 270 | 12.9 | 24.1 | 0.00 | 0.00 | 0.00 | 42 | 1012.3 |
| 20260505140516 | 21 | 270 | 9.7 | 17.7 | 0.00 | 0.00 | 0.00 | 40 | 1012.8 |
| 20260505124516 | 21 | 293 | 6.4 | 19.3 | 0.00 | 0.00 | 0.00 | 36 | 1013.3 |
| 20260505123516 | 21 | 315 | 11.3 | 22.5 | 0.00 | 0.00 | 0.00 | 37 | 1013.4 |
| 20260505122518 | 21 | 248 | 8.0 | 16.1 | 0.00 | 0.00 | 0.00 | 36 | 1013.5 |
| 20260505121516 | 21 | 293 | 12.9 | 22.5 | 0.00 | 0.00 | 0.00 | 37 | 1013.7 |
| 20260505120517 | 21 | 315 | 6.4 | 16.1 | 0.00 | 0.00 | 0.00 | 38 | 1013.8 |
| 20260505115536 | 20 | 293 | 8.0 | 17.7 | 0.00 | 0.00 | 0.00 | 38 | 1013.9 |
| 20260505114516 | 21 | 315 | 6.4 | 16.1 | 0.00 | 0.00 | 0.00 | 37 | 1014.0 |
| 20260505113516 | 21 | 315 | 11.3 | 25.7 | 0.00 | 0.00 | 0.00 | 39 | 1013.8 |
| 20260505112516 | 20 | 293 | 6.4 | 14.5 | 0.00 | 0.00 | 0.00 | 41 | 1014.1 |
| 20260505111517 | 20 | 293 | 6.4 | 16.1 | 0.00 | 0.00 | 0.00 | 41 | 1014.2 |
| 20260505110516 | 20 | 338 | 6.4 | 17.7 | 0.00 | 0.00 | 0.00 | 43 | 1014.1 |
| 20260505101516 | 19 | 338 | 8.0 | 16.1 | 0.00 | 0.00 | 0.00 | 47 | 1014.5 |
| 20260505100517 | 18 | 0 | 6.4 | 16.1 | 0.00 | 0.00 | 0.00 | 50 | 1014.4 |
| 20260505095516 | 18 | 315 | 8.0 | 16.1 | 0.00 | 0.00 | 0.00 | 51 | 1014.4 |
| 20260505094536 | 18 | 315 | 4.8 | 12.9 | 0.00 | 0.00 | 0.00 | 53 | 1014.4 |
| 20260505093516 | 18 | 315 | 6.4 | 12.9 | 0.00 | 0.00 | 0.00 | 54 | 1014.4 |
| 20260505092515 | 18 | 0 | 8.0 | 16.1 | 0.00 | 0.00 | 0.00 | 55 | 1014.4 |
| 20260505091537 | 18 | 293 | 4.8 | 12.9 | 0.00 | 0.00 | 0.00 | 57 | 1014.4 |
| 20260505090518 | 17 | 315 | 4.8 | 12.9 | 0.00 | 0.00 | 0.00 | 59 | 1014.5 |
| 20260505085518 | 17 | 315 | 4.8 | 12.9 | 0.00 | 0.00 | 0.00 | 61 | 1014.5 |
| 20260505084517 | 17 | 338 | 4.8 | 14.5 | 0.00 | 0.00 | 0.00 | 61 | 1014.5 |
| 20260505083517 | 17 | 293 | 9.7 | 17.7 | 0.00 | 0.00 | 0.00 | 62 | 1014.5 |
| 20260505082518 | 16 | 315 | 6.4 | 12.9 | 0.00 | 0.00 | 0.00 | 64 | 1014.4 |
| 20260505081517 | 16 | 338 | 6.4 | 14.5 | 0.00 | 0.00 | 0.00 | 64 | 1014.4 |
| 20260505080519 | 16 | 338 | 9.7 | 12.9 | 0.00 | 0.00 | 0.00 | 64 | 1014.5 |
| 20260505075518 | 15 | 338 | 6.4 | 12.9 | 0.00 | 0.00 | 0.00 | 66 | 1014.5 |
| 20260505074518 | 15 | 0 | 4.8 | 11.3 | 0.00 | 0.00 | 0.00 | 67 | 1014.4 |
| 20260505073517 | 15 | 338 | 4.8 | 8.0 | 0.00 | 0.00 | 0.00 | 68 | 1014.3 |
| 20260505072518 | 14 | 338 | 6.4 | 11.3 | 0.00 | 0.00 | 0.00 | 69 | 1014.3 |
| 20260505071600 | 14 | 315 | 3.2 | 6.4 | 0.00 | 0.00 | 0.00 | 71 | 1014.4 |
| 20260505070517 | 13 | 315 | 3.2 | 6.4 | 0.00 | 0.00 | 0.00 | 73 | 1014.4 |
| 20260505065517 | 13 | 338 | 6.4 | 9.7 | 0.00 | 0.00 | 0.00 | 73 | 1014.4 |
| 20260505064517 | 13 | 338 | 6.4 | 12.9 | 0.00 | 0.00 | 0.00 | 74 | 1014.4 |
| 20260505063517 | 12 | 0 | 4.8 | 8.0 | 0.00 | 0.00 | 0.00 | 75 | 1014.2 |
| 20260505062537 | 12 | 23 | 3.2 | 6.4 | 0.00 | 0.00 | 0.00 | 76 | 1014.2 |
| 20260505061517 | 12 | 45 | 4.8 | 6.4 | 0.00 | 0.00 | 0.00 | 76 | 1014.2 |
| 20260505060517 | 12 | 0 | 1.6 | 4.8 | 0.00 | 0.00 | 0.00 | 76 | 1014.1 |
| 20260505055517 | 13 | 0 | 3.2 | 6.4 | 0.00 | 0.00 | 0.00 | 75 | 1014.0 |
| 20260505054517 | 13 | 338 | 4.8 | 9.7 | 0.00 | 0.00 | 0.00 | 75 | 1013.8 |
| 20260505053517 | 12 | 338 | 6.4 | 12.9 | 0.00 | 0.00 | 0.00 | 76 | 1013.8 |
| 20260505052539 | 12 | 338 | 4.8 | 8.0 | 0.00 | 0.00 | 0.00 | 77 | 1013.7 |
| 20260505051537 | 12 | 315 | 4.8 | 9.7 | 0.00 | 0.00 | 0.00 | 77 | 1013.5 |
| 20260505050517 | 12 | 338 | 4.8 | 6.4 | 0.00 | 0.00 | 0.00 | 77 | 1013.6 |